User: anonymous   Login
Location: Ballingbuur
(53.0000°N, 5.7667°E)
Time: 22:22:46
(UTC+00:00)
Language:

deb Chang Zheng 4 - Orbit

View from above orbital plane
View from above orbital plane
View from above satellite
View from above satellite

Ground track
Ground track

The orbit data is extracted from the following two-line orbital elements,

1 20847U 90081K   21058.53975969  .00002927  00000-0  34440-3 0  9996
2 20847  98.5732  53.7763 0017143  56.3087 303.9758 14.85625665605883
Epoch (UTC): 27 February 2021 12:57:15
Eccentricity: 0.0017143
inclination: 98.5732°
perigee height: 599 km
apogee height: 623 km
right ascension of ascending node: 53.7763°
argument of perigee: 56.3087°
revolutions per day: 14.85625665
mean anomaly at epoch: 303.9758°
orbit number at epoch: 60588

The dashed part of the orbit path shows where the satellite is in the earth's shadow,  

DLR